Barksdale AFB, LA

5:16 AM CST on February 26, 2017 (GMT -0600)
Barksdale Air Force Base

Weather History for KBAD - May, 2014

Change the Weather History Date:

Wednesday, May 7, 2014

  Actual Average Record
Temperature  
Mean Temperature 76 °F -  
Max Temperature 88 °F 80 °F 91 °F (2012)
Min Temperature 64 °F 60 °F 50 °F (1999)
Cooling Degree Days 10    
Growing Degree Days 26 (Base 50)    
Moisture  
Dew Point 61 °F    
Average Humidity 68    
Maximum Humidity 93    
Minimum Humidity 40    
Precipitation  
Precipitation 0.00 in - - ()
Sea Level Pressure  
Sea Level Pressure 29.91 in    
Wind  
Wind Speed 12 mph (SSE)    
Max Wind Speed 22 mph    
Max Gust Speed 29 mph    
Visibility 10 miles    
Events      
Averages and records for this station are not official NWS values.
T = Trace of Precipitation, MM = Missing Value Source: NWS Daily Summary

Daily Weather History Graph

Daily Weather History Graph

Search for Another Location

Airport or City:

Trip Planner

Search our weather history database for the weather conditions in past years. The results will help you decide how hot, cold, wet, or windy it might be!

Date:

Astronomy

May. 07, 2014 Rise Set
Actual Time 6:22 AM CDT 8:00 PM CDT
Civil Twilight 5:55 AM CDT 8:26 PM CDT
Nautical Twilight 5:24 AM CDT 8:58 PM CDT
Astronomical Twilight 4:50 AM CDT 9:32 PM CDT
Moon 1:28 PM CDT (5/7) 1:58 AM CDT (5/7)
Length of Visible Light 14h 31m
Length of Day
13h 37m
First Quarter, 55% of the Moon is Illuminated
May 7
First Quarter
May 14
Full
May 21
Last Quarter
May 28
New
Jun 5
First Quarter

Hourly Weather History & Observations

Time (CDT) Temp. Heat Index Dew Point Humidity Pressure Visibility Wind Dir Wind Speed Gust Speed Precip Events Conditions
12:58 AM 68.9 °F - 59.4 °F 72% 29.87 in 10.0 mi South 13.8 mph - N/A   Clear
1:58 AM 68.0 °F - 60.3 °F 76% 29.87 in 10.0 mi South 10.4 mph - N/A   Scattered Clouds
2:58 AM 66.9 °F - 61.0 °F 81% 29.86 in 10.0 mi South 11.5 mph - N/A   Partly Cloudy
3:18 AM 68.0 °F - 60.8 °F 78% 29.86 in 10.0 mi South 10.4 mph - N/A   Mostly Cloudy
3:38 AM 66.2 °F - 60.8 °F 83% 29.86 in 10.0 mi SSE 9.2 mph - N/A   Scattered Clouds
3:58 AM 64.9 °F - 61.0 °F 87% 29.88 in 10.0 mi SSE 8.1 mph - N/A   Scattered Clouds
4:18 AM 66.2 °F - 62.6 °F 88% 29.88 in 10.0 mi South 6.9 mph - N/A   Mostly Cloudy
4:58 AM 66.6 °F - 62.1 °F 85% 29.89 in 10.0 mi South 8.1 mph - N/A   Mostly Cloudy
5:48 AM 66.2 °F - 62.6 °F 88% 29.90 in 10.0 mi SSE 10.4 mph - N/A   Mostly Cloudy
5:58 AM 65.8 °F - 63.0 °F 90% 29.92 in 10.0 mi SSE 8.1 mph - N/A   Mostly Cloudy
6:28 AM 66.2 °F - 62.6 °F 88% 29.92 in 10.0 mi South 8.1 mph - N/A   Mostly Cloudy
6:58 AM 65.1 °F - 63.1 °F 93% 29.94 in 10.0 mi SE 8.1 mph - N/A   Scattered Clouds
7:28 AM 68.0 °F - 64.4 °F 88% 29.94 in 10.0 mi SSE 6.9 mph - N/A   Mostly Cloudy
7:48 AM 68.0 °F - 64.4 °F 88% 29.94 in 10.0 mi SSE 10.4 mph - N/A   Mostly Cloudy
7:58 AM 68.7 °F - 64.0 °F 85% 29.94 in 10.0 mi SSE 12.7 mph - N/A   Mostly Cloudy
8:58 AM 72.5 °F - 63.9 °F 74% 29.95 in 10.0 mi South 13.8 mph - N/A   Scattered Clouds
9:58 AM 76.1 °F - 62.2 °F 62% 29.94 in 10.0 mi South 18.4 mph - N/A   Mostly Cloudy
10:58 AM 80.1 °F 81.0 °F 60.3 °F 51% 29.94 in 10.0 mi South 17.3 mph - N/A   Clear
11:58 AM 82.0 °F 82.4 °F 60.1 °F 47% 29.93 in 10.0 mi South 19.6 mph 26.5 mph N/A   Partly Cloudy
12:58 PM 84.9 °F 84.4 °F 58.5 °F 41% 29.94 in 10.0 mi South 18.4 mph - N/A   Partly Cloudy
1:58 PM 85.6 °F 85.4 °F 60.1 °F 42% 29.93 in 10.0 mi SSE 16.1 mph 28.8 mph N/A   Clear
2:58 PM 87.3 °F 87.0 °F 60.1 °F 40% 29.92 in 10.0 mi South 18.4 mph 26.5 mph N/A   Partly Cloudy
3:58 PM 87.4 °F 87.2 °F 60.1 °F 40% 29.90 in 10.0 mi SSE 19.6 mph 27.6 mph N/A   Clear
4:58 PM 86.4 °F 85.9 °F 59.7 °F 40% 29.88 in 10.0 mi SSE 21.9 mph 27.6 mph N/A   Mostly Cloudy
5:58 PM 84.7 °F 84.2 °F 58.5 °F 41% 29.88 in 10.0 mi South 20.7 mph - N/A   Overcast
6:58 PM 83.5 °F 83.7 °F 60.6 °F 46% 29.89 in 10.0 mi South 13.8 mph 24.2 mph N/A   Mostly Cloudy
7:58 PM 80.2 °F 81.4 °F 62.4 °F 54% 29.90 in 10.0 mi South 9.2 mph - N/A   Clear
8:58 PM 78.1 °F - 61.3 °F 56% 29.90 in 10.0 mi South 13.8 mph - N/A   Clear
9:58 PM 72.0 °F - 60.8 °F 68% 29.92 in 10.0 mi SSE 8.1 mph - N/A   Clear
10:58 PM 70.7 °F - 61.0 °F 71% 29.92 in 10.0 mi SSE 6.9 mph - N/A   Clear
11:58 PM 71.4 °F - 62.2 °F 73% 29.92 in 10.0 mi SSE 10.4 mph - N/A   Mostly Cloudy